Weather History for KSJN - March, 2013

Change the Weather History Date:

Monday, March 4, 2013

  Actual Average (KSOW) Record (KSOW)
Temperature  
Mean Temperature 48 °F -  
Max Temperature 53 °F 50 °F 70 °F (1972)
Min Temperature 27 °F 30 °F -7 °F (1966)
Degree Days  
Heating Degree Days 16    
Moisture  
Dew Point 20 °F    
Average Humidity 33    
Maximum Humidity 62    
Minimum Humidity 15    
Precipitation  
Precipitation 0.00 in - - ()
Sea Level Pressure  
Sea Level Pressure 29.86 in    
Wind  
Wind Speed 9 mph (West)    
Max Wind Speed 22 mph    
Max Gust Speed 32 mph    
Visibility 10 miles    
Events      
Averages and records for this station are not official NWS values.
T = Trace of Precipitation, MM = Missing Value Source: NWS Daily Summary

Daily Weather History Graph

Daily Weather History Graph

Search for Another Location

Airport or City:

Trip Planner

Search our weather history database for the weather conditions in past years. The results will help you decide how hot, cold, wet, or windy it might be!

Date:

Astronomy

Mar. 04, 2013 Rise Set
Actual Time 6:42 AM MST 6:16 PM MST
Civil Twilight 6:17 AM MST 6:41 PM MST
Nautical Twilight 5:48 AM MST 7:10 PM MST
Astronomical Twilight 5:18 AM MST 7:39 PM MST
Moon 12:45 AM MST 11:11 AM MST
Length of Visible Light 12h 24m
Length of Day
11h 34m
Waning Gibbous, 51% of the Moon is Illuminated
Mar 4
Waning Gibbous
Mar 4
Last Quarter
Mar 11
New
Mar 19
First Quarter
Mar 27
Full

Hourly Weather History & Observations

Time (MST) Temp. Windchill Dew Point Humidity Pressure Visibility Wind Dir Wind Speed Gust Speed Precip Events Conditions
12:54 AM 46.0 °F 42.5 °F 17.1 °F 31% 29.80 in 10.0 mi SSW 6.9 mph - N/A   Mostly Cloudy
1:54 AM 48.0 °F - 19.0 °F 32% 29.79 in 10.0 mi West 6.9 mph - N/A   Overcast
2:54 AM 46.0 °F 43.9 °F 21.0 °F 37% 29.77 in 10.0 mi SW 4.6 mph - N/A   Overcast
3:54 AM 45.0 °F 41.8 °F 19.9 °F 37% 29.77 in 10.0 mi WNW 5.8 mph - N/A   Overcast
4:54 AM 42.1 °F 40.2 °F 19.0 °F 40% 29.78 in 10.0 mi WSW 3.5 mph - N/A   Partly Cloudy
5:54 AM 43.0 °F 40.3 °F 19.9 °F 40% 29.80 in 10.0 mi WSW 4.6 mph - N/A   Overcast
6:54 AM 39.9 °F 35.8 °F 21.0 °F 47% 29.82 in 10.0 mi ENE 5.8 mph - N/A   Mostly Cloudy
7:54 AM 45.0 °F 41.8 °F 21.0 °F 39% 29.83 in 10.0 mi WSW 5.8 mph - N/A   Mostly Cloudy
8:54 AM 51.1 °F - 18.0 °F 27% 29.81 in 10.0 mi WSW 19.6 mph 24.2 mph N/A   Mostly Cloudy
9:54 AM 55.0 °F - 19.9 °F 25% 29.79 in 10.0 mi WSW 19.6 mph 25.3 mph N/A   Clear
10:54 AM 55.9 °F - 23.0 °F 28% 29.78 in 10.0 mi West 20.7 mph 27.6 mph N/A   Clear
11:54 AM 57.9 °F - 21.0 °F 24% 29.79 in 10.0 mi West 18.4 mph 32.2 mph N/A   Clear
12:54 PM 61.0 °F - 19.0 °F 20% 29.77 in 10.0 mi WSW 21.9 mph 28.8 mph N/A   Partly Cloudy
1:54 PM 59.0 °F - 18.0 °F 20% 29.76 in 10.0 mi West 20.7 mph 28.8 mph N/A   Partly Cloudy
2:54 PM 60.1 °F - 17.1 °F 19% 29.78 in 10.0 mi WNW 21.9 mph 26.5 mph N/A   Partly Cloudy
3:54 PM 57.9 °F - 17.1 °F 20% 29.82 in 10.0 mi WNW 18.4 mph 26.5 mph N/A   Partly Cloudy
4:54 PM 57.9 °F - 19.0 °F 22% 29.85 in 10.0 mi NW 12.7 mph 23.0 mph N/A   Clear
5:54 PM 55.0 °F - 21.0 °F 27% 29.89 in 10.0 mi NW 10.4 mph - N/A   Clear
6:54 PM 45.0 °F 41.8 °F 19.9 °F 37% 29.97 in 10.0 mi WNW 5.8 mph - N/A   Clear
7:54 PM 44.1 °F 41.5 °F 19.9 °F 38% 29.99 in 10.0 mi West 4.6 mph - N/A   Clear
8:54 PM 42.1 °F - 21.0 °F 43% 30.00 in 10.0 mi Calm Calm - N/A   Clear
9:54 PM 37.9 °F 35.5 °F 21.0 °F 51% 30.02 in 10.0 mi East 3.5 mph - N/A   Clear
10:54 PM 37.9 °F 32.1 °F 21.0 °F 51% 30.05 in 10.0 mi South 8.1 mph - N/A   Clear